Showing default

KORSAT 7, 58463

Orbit data source: Space-Track

KORSAT 7, 58463 is a payload satellite owned by DAPA (KR) in SSO that was launched on Fri, 01 Dec 2023 UTC via an FALCON 9 launch vehicle from the Air Force Western Test Range (AFWTR). Payload-class satellites include a variety of spacecraft equipped with specific instruments for various scientific and technological missions. These include communications satellites like Starlink; space stations such as the ISS; scientific satellites like the Hubble; Earth observation satellites from companies like Planet Labs, Umbra, and HawkEye 360; GPS; miniature CubeSats for education and research; and military/defense satellites.

Loading next visibility...
Identifier
58463, 2023-185B
Orbit
SSO
Last TLE update
8 hours ago
Origin
Manufacturer
KAI
Mission
Operational Defense Imaging
Bus & Motor
CAS500?, Unknown motor
Mass
~800 kg wet, ~750 kg dry
Launch date (UTC)
2023-12-01 (1 year ago)
Launch vehicle
FALCON 9
Launch site
Air Force Western Test Range (AFWTR)
Object type
Payload
Rocket body
Debris
Shape & HBR
Box + 4 Pan, 6 m
Radar Cross Section
11.517 m², Large (>1 m²)

Expand to show TLE details & history

TLE from 8 hours ago
0 KORSAT 7
1 58463U 23185B   25131.19482853  .00002814  00000-0  22601-3 0  9996
2 58463  97.6113 197.7734 0025041 249.2594 110.5946 15.00616461 78988
Epoch: 2025-05-11T04:40Z
Definitive object data (Epoch: 2025-05-11T04:40:33.184Z)
Latitude
-0.00008°
Longitude
-101.59061°
Altitude
574.207 km
Speed
7.57 km/s
True Right ascension
13h 11m 05s
True Declination
0° 00' 00"
Sunlit
Object was in full shadow at TLE epoch
Visualization TLE readout
Latitude
-32.38067°
Longitude
-96.43565°
Altitude
573.998 km
Speed
7.574 km/s
Apparent Right ascension
11h 25m 22s
Apparent Declination
-41° 24' 15"
Sunlit
Object is in full shadow
Visualization observer readout
Local Sidereal Time
20:49:41
Azimuth
254.26° W
Elevation
-60.686°
Doppler factor
1
Orbital elements
Apogee altitude
579.373 km
Perigee altitude
544.616 km
Semi-major axis
6,940.132 km
Eccentricity
0.0025041
Inclination
97.6113°
RAAN
197.7734°
Arg. of periapsis
249.2594°
True anomaly
110.86291°
Mean anomaly
110.5946°
Eccentric anomaly
110.72879°
Mean motion
3.75398 °/min
BSTAR
0.00022601
Orbital period
95.9 mins
Loading maneuver chart data...
Loading SW <> Apogee altitude chart data...
Loading historical data...
Loading historical data...
Loading historical data...
Loading historical data...
Loading historical data...
Loading historical data...
Loading historical data...

KORSAT 7 Visibility forecast

Observer location: undefined°, undefined°

Span
Click to sort rows by Start time (UTC) header in descending order
Start Az.
Max El. time (UTC)
Max El. Az.
Max El.
End time (UTC)
End Az.
5 mins2025-05-11 16:27:58.104Z49.703° ENE2025-05-11 16:29:58.104Z83.97° E20.556°2025-05-11 16:32:58.104Z140.585° SSE
4 mins2025-05-11 18:03:58.104Z323.38° NNW2025-05-11 18:04:58.104Z301.719° NW23.257°2025-05-11 18:07:58.104Z241.162° WSW
6 mins2025-05-12 04:48:58.104Z195.052° SSW2025-05-12 04:50:58.104Z239.56° WSW35.416°2025-05-12 04:54:58.104Z334.026° NNW
|